Regional Weather Roundup
Issued by NWS

Home | Current Version | Previous Version | Graphics & Text | Print | Product List | Glossary On
Versions: 1 2 3 4 5 6 7 8 9 10 11 12 13 14 15 16 17 18 19 20 21 22 23 24 25 26 27 28 29 30 31 32 33 34 35 36 37 38 39 40 41 42 43 44 45 46 47 48 49 50
000
ASUS43 KDTX 011110
RWRMI
MICHIGAN HOURLY REGIONAL WEATHER ROUNDUP
NATIONAL WEATHER SERVICE DETROIT/PONTIAC MI
700 AM EDT WED OCT 01 2014

NOTE: "FAIR" INDICATES FEW OR NO CLOUDS BELOW 12,000 FEET WITH NO
SIGNIFICANT WEATHER AND/OR OBSTRUCTION TO VISIBILITY.

MIZ047>049-052>055-059>063-066>070-074>076-081>083-011200-
SOUTHEAST LOWER MICHIGAN

CITY           SKY/WX    TMP DP  RH WIND       PRES   REMARKS
ADRIAN         PTCLDY    48  47  96 N3        30.04R
ALMA           FOG       51  50  97 CALM      30.04S VSB 1/2
ANN ARBOR      CLOUDY    52  50  93 NW3       30.03R FOG
BAD AXE        FOG       56  56 100 NE3       30.04S VSB 3/4
CARO           FOG       56  56 100 NE5       30.02S VSB 3/4
DETROIT CITY   CLOUDY    55  54  96 CALM      30.05R
DETROIT        CLOUDY    54  52  93 CALM      30.04R
FLINT          FOG       54  51  90 CALM      30.04R VSB 1/2
GROSSE ILE     MOCLDY    54  52  94 N3        30.02S
HILLSDALE      CLOUDY    51  51 100 CALM      30.03R
HOWELL         FOG       51  51 100 CALM      30.03R VSB 1/2

CITY           SKY/WX    TMP DP  RH WIND       PRES   REMARKS
JACKSON        CLOUDY    51  49  92 CALM      30.04R
LAMBERTVILLE   FOG       46  45  93 CALM      30.03R VSB 1
LANSING        FOG       50  49  96 CALM      30.04R VSB 3/4
LAPEER         FOG       54  53  97 CALM      30.03R VSB 1/2
MASON          FOG       50  49  97 CALM      30.03S VSB 3/4
MONROE         PTCLDY    50  48  93 N3        30.02R
MT. CLEMENS    CLOUDY    55  55 100 W2        30.01S FOG
PONTIAC        CLOUDY    53  52  96 E5        30.02R FOG
PORT HOPE        N/A     59  57  93 CALM      30.03R
PORT HURON     CLOUDY    54  54 100 CALM      30.03R FOG
TRI CITIES     CLOUDY    54  52  93 W3        30.04S
TROY           CLOUDY    55  53  91 CALM      30.05R
SAGINAW HB     FOG       54  54 100 CALM      30.02S VSB 3/4
$$
MIZ043>046-050>051-056>058-064>065-071>073-077>080-011200-
SOUTHWEST LOWER MICHIGAN

CITY           SKY/WX    TMP DP  RH WIND       PRES   REMARKS
BATTLE CREEK   CLOUDY    53  48  83 CALM      30.04R
BIG RAPIDS     CLOUDY    51  51 100 CALM      30.03F
COLDWATER      CLOUDY    53  48  82 CALM      30.03R
FREMONT        CLOUDY    51  49  93 E3        30.03S
HOLLAND        CLOUDY    54  49  83 E3        30.04S
GRAND RAPIDS   CLOUDY    52  50  93 CALM      30.04R
IONIA          FOG       51  51  99 CALM      30.03R VSB 1/2
KALAMAZOO      CLOUDY    52  47  83 SE3       30.04R
LUDINGTON      CLOUDY    51  49  93 CALM      30.04R
MARSHALL       CLOUDY    50  48  93 CALM      30.03R
MOUNT PLEASANT FOG       51  50  97 CALM      30.03S VSB 1/2
MUSKEGON       CLOUDY    53  48  83 CALM      30.04R
SOUTH HAVEN    CLOUDY    53  49  86 E3        30.03R
$$
MIZ016>042-011200-
NORTHERN LOWER MICHIGAN

CITY           SKY/WX    TMP DP  RH WIND       PRES   REMARKS
ALPENA         CLOUDY    53  52  96 E3        30.07S FOG
BEAVER ISLAND  CLOUDY    54  52  94 CALM      30.05S
BELLAIRE       CLOUDY    51  49  94 CALM      30.04F
CADILLAC       FOG       48  48 100 CALM      30.04R VSB 1/2
CHARLEVOIX     CLOUDY    52  52  99 S3        30.08S
FRANKFORT      CLOUDY    52  49  87 CALM      30.04S
GAYLORD        CLOUDY    50  50 100 CALM      30.05F FOG
GRAYLING       CLOUDY    51  51 100 E3        30.05S
HARBOR SPRINGS CLOUDY    53  50  92 E5        30.06S
HOUGHTON LAKE  CLOUDY    50  50 100 E5        30.05S
OSCODA         CLOUDY    54  54 100 NE6       30.04S FOG
PELLSTON       CLOUDY    52  51  97 SE6       30.07S
ROGERS CITY    CLOUDY    52  52 100 E3        30.09S
TRAVERSE CITY  CLOUDY    53  48  83 CALM      30.04S
$$
MIZ007>008-015-011200-
EASTERN UPPER MICHIGAN

CITY           SKY/WX    TMP DP  RH WIND       PRES   REMARKS
MACKINAC ISLAN CLOUDY    53  52  97 CALM      30.07R FOG
NEWBERRY       CLOUDY    50  50  99 SE7       30.04S FOG
S. S. MARIE    CLOUDY    51  48  89 E3        30.07S FOG
MUNISING         N/A     53  49  86 S6        30.01S
$$
MIZ004>006-011>014-085-011200-
CENTRAL UPPER MICHIGAN

CITY           SKY/WX    TMP DP  RH WIND       PRES   REMARKS
MANISTIQUE     CLOUDY    54  52  93 S6        30.04R
SAWYER-GWINN   FOG       48  46  93 S6        30.00S VSB 1/2
$$
MIZ001>003-009>011-084-011200-
WESTERN UPPER MICHIGAN

CITY           SKY/WX    TMP DP  RH WIND       PRES   REMARKS
IRON MOUNTAIN  CLOUDY    47  46  97 S3        30.01R FOG
HOUGHTON       CLOUDY    49  45  86 SE8       29.97S
COPPER HARBOR    N/A     50  47  89 SW16G26   29.95S
$$

ABBREVIATIONS USED IN REMARKS
   TC - TEMPERATURE IN CELSIUS
  WCI - WIND CHILL INDEX
   HX - HEAT INDEX
  VSB - VISIBILITY



USA.gov is the U.S. government's official web portal to all federal, state and local government web resources and services.